This demonstration page uses our WeatherBlox Daily Observations layout. Learn more.

Left ArrowRight Arrow

39.12711, -84.51439

Hourly Observations for March 11, 2021

Temp ( °F °C ) Dew Point ( °F °C ) Humidity (%) Winds ( mph kmh ) Pressure ( in mb ) Visibility ( mi km ) Precip ( " mm )
12:53 am 00:53 Mostly Clear 57 13.9 37 2.8 47 47 SSW 12 19 30.15 1021 10 16 0.00 0.00
1:53 am 01:53 Partly Cloudy 61 16.1 39 3.9 44 44 SSW 16 26 30.14 1021 10 16 0.00 0.00
2:53 am 02:53 Cloudy 64 17.8 40 4.4 41 41 SSW 18 30 30.13 1020 10 16 0.00 0.00
3:53 am 03:53 Cloudy 63 17.2 41 5 45 45 SSW 15 24 30.13 1020 10 16 0.00 0.00
4:53 am 04:53 Cloudy 62 16.7 42 5.6 48 48 SSW 14 22 30.13 1020 10 16 0.00 0.00
5:53 am 05:53 Cloudy 63 17.2 43 6.1 48 48 SSW 13 20 30.14 1021 10 16 0.00 0.00
6:53 am 06:53 Cloudy 64 17.8 43 6.1 46 46 SSW 16 26 30.15 1021 10 16 0.00 0.00
7:53 am 07:53 Cloudy 63 17.2 45 7.2 52 52 SSW 24 39 30.15 1021 10 16 0.00 0.00
8:53 am 08:53 Mostly Cloudy 64 17.8 48 8.9 56 56 SSW 15 24 30.17 1022 10 16 0.00 0.00
9:53 am 09:53 Cloudy 64 17.8 48 8.9 56 56 SSW 18 30 30.17 1022 10 16 0.00 0.00
10:53 am 10:53 Cloudy 65 18.3 49 9.4 56 56 SW 23 37 30.17 1022 10 16 0.00 0.00
11:53 am 11:53 Cloudy 64 17.8 50 10 60 60 SSW 17 28 30.18 1022 10 16 0.00 0.00
12:53 pm 12:53 Cloudy 62 16.7 50 10 65 65 SW 13 20 30.21 1023 10 16 0.00 0.00
1:05 pm 13:05 Cloudy with Nearby Thunderstorms 60 15.6 52 11.1 75 75 SW 12 19 30.21 1023 5 8 0.01 0.25
1:26 pm 13:26 Cloudy with Rain 58 14.4 53 11.7 84 84 SSW 16 26 30.19 1022 3 5 0.07 1.78
1:53 pm 13:53 Cloudy with Light Rain 59 15 54 12.2 83 83 S 15 24 30.16 1021 8 13 0.09 2.29
2:53 pm 14:53 Mostly Sunny 63 17.2 55 12.8 76 76 SSW 20 31 30.15 1021 10 16 0.00 0.00
3:53 pm 15:53 Cloudy 62 16.7 53 11.7 73 73 SSW 16 26 30.13 1020 10 16 0.00 0.00
4:53 pm 16:53 Cloudy 62 16.7 53 11.7 73 73 S 10 17 30.11 1020 10 16 0.00 0.00
5:53 pm 17:53 Cloudy 61 16.1 54 12.2 78 78 S 5 7 30.11 1020 10 16 0.00 0.00
6:53 pm 18:53 Cloudy with Nearby Thunderstorms 61 16.1 55 12.8 81 81 VRB 3 6 30.12 1020 7 11 0.00 0.00
7:24 pm 19:24 Cloudy with Rain 59 15 56 13.3 90 90 WSW 6 9 30.15 1021 7 11 0.10 2.54
7:53 pm 19:53 Cloudy with Heavy Rain 58 14.4 56 13.3 93 93 Calm 30.16 1022 4 6 0.23 5.84
8:53 pm 20:53 Cloudy with Light Rain 57 13.9 56 13.3 96 96 W 5 7 30.19 1023 4 6 0.12 3.05
9:53 pm 21:53 Cloudy with Light Rain 57 13.9 56 13.3 96 96 WSW 6 9 30.20 1023 5 8 0.03 0.76
10:53 pm 22:53 Cloudy with Light Rain 57 13.9 53 11.7 87 87 WNW 9 15 30.22 1023 10 16 0.07 1.78
11:53 pm 23:53 Cloudy 56 13.3 54 12.2 93 93 Calm 30.22 1024 10 16 0.00 0.00

Powered by AerisWeather